Location: Chateh
(58.6667°N, 118.6000°W)
Time: 11:07:49
(UTC+00:00)

PCSat - Pass Details

Date: 07 December 2023
Orbit: 784 x 791 km, 67.0° (Epoch: 01 March)

Event Time Altitude Azimuth Distance (km) Brightness Sun altitude
Exits shadow 14:49:17 14° 277° (W) 2,110 11.2 -11.4°
Maximum altitude 14:53:39 40° 343° (NNW) 1,162 10.1 -10.9°
Drops below altitude 10° 14:58:45 10° 52° (NE) 2,365 12.4 -10.3°
Sets 15:01:19 0° 61° (ENE) 3,297 13.3 -10.0°
